Retour au catalogue

STARLINK-31611

ActifCommunicationsVLEO
NORAD 59325·PAYLOAD·🇺🇸 United States

Lancé Mar 25, 2024 depuis Cape Canaveral Space Force Station

Loading…

Prochains Passages (prochaines 24 heures)

TLE

FraisSource: CelesTrak SupGP

Époque: Sep 15, 2026, 01:56 UTC

1 59325C 24057F   26258.08104167 -.00062325  00000+0 -22578-2 0  2585
2 59325  43.0001 197.9052 0001279 271.6915 291.2370 15.27603459    14

Suivez STARLINK-31611 en temps réel avec AllMySat

Download on the App Store